Retour au catalogue

STARLINK-3133

ActifCommunicationsVLEO
NORAD 49416·PAYLOAD·🇺🇸 United States

Lancé Nov 13, 2021 depuis Cape Canaveral Space Force Station

Loading…

Prochains Passages (prochaines 24 heures)

TLE

FraisSource: CelesTrak SupGP

Époque: Sep 15, 2026, 01:17 UTC

1 49416C 21104J   26258.05395833  .00017192  00000+0  50803-3 0  2587
2 49416  53.1589  86.8339 0001206  80.2742 270.6171 15.34376780    15

Suivez STARLINK-3133 en temps réel avec AllMySat

Download on the App Store